DW4360 Weather Reports


time (UTC)temp
C
wind
direction
speed
KPH
gust
KPH
rain 1hr
cm
rain 24hr
cm
rain mn
cm
humidity
%
barometer
mb
20260509181606 20 150 3.2 0.0 0.00 0.00 0.00 59 1018.3
20260509180605 19 314 0.0 0.0 0.00 0.00 0.00 63 1018.3
20260509175604 18 327 0.0 0.0 0.00 0.00 0.00 67 1018.3
20260509174603 18 348 0.0 0.0 0.00 0.00 0.00 68 1018.5
20260509173602 17 319 0.0 0.0 0.00 0.00 0.00 71 1018.6
20260509172601 16 322 0.0 0.0 0.00 0.00 0.00 73 1018.8
20260509171600 15 307 0.0 0.0 0.00 0.00 0.00 76 1019.1
20260509170559 15 165 0.0 0.0 0.00 0.00 0.00 77 1019.2
20260509165558 15 126 6.4 0.0 0.00 0.00 0.00 79 1019.3
20260509164557 14 323 0.0 0.0 0.00 0.00 0.00 80 1019.4
20260509163556 13 318 8.0 0.0 0.00 0.00 0.00 81 1019.5
20260509162555 13 325 0.0 0.0 0.00 0.00 0.00 81 1019.8
20260509161554 13 334 0.0 0.0 0.00 0.00 0.00 83 1019.9
20260509160553 13 323 0.0 0.0 0.00 0.00 0.00 85 1019.9
20260509153550 12 130 0.0 0.0 0.00 0.00 0.00 87 1020.0
20260509152549 12 313 0.0 0.0 0.00 0.00 0.00 88 1020.2
20260509151548 11 313 0.0 0.0 0.00 0.00 0.00 89 1020.3
20260509150547 11 313 0.0 0.0 0.00 0.00 0.00 89 1020.4
20260509145546 11 319 0.0 0.0 0.00 0.00 0.00 91 1020.4
20260509142543 10 350 0.0 0.0 0.00 0.00 0.00 93 1020.2
20260509141542 10 360 0.0 0.0 0.00 0.00 0.00 92 1020.3
20260509140541 10 360 0.0 0.0 0.00 0.00 0.00 92 1020.2
20260509135540 9 360 0.0 0.0 0.00 0.00 0.00 91 1020.2
20260509133538 9 360 0.0 0.0 0.00 0.00 0.00 91 1019.9
20260509132537 9 360 0.0 0.0 0.00 0.00 0.00 90 1020.0
20260509131536 9 360 0.0 0.0 0.00 0.00 0.00 90 1020.0
20260509130535 9 360 0.0 0.0 0.00 0.00 0.00 90 1020.0
20260509125534 9 360 0.0 0.0 0.00 0.00 0.00 89 1019.9
20260509122531 10 360 0.0 0.0 0.00 0.00 0.00 89 1020.2
20260509121529 10 360 0.0 0.0 0.00 0.00 0.00 88 1020.2
20260509120528 10 360 0.0 0.0 0.00 0.00 0.00 88 1020.0
20260509115527 10 360 0.0 0.0 0.00 0.00 0.00 88 1020.1
20260509114527 10 360 0.0 0.0 0.00 0.00 0.00 87 1020.2
20260509113526 10 360 0.0 0.0 0.00 0.00 0.00 87 1020.2
20260509111523 11 360 0.0 0.0 0.00 0.00 0.00 87 1020.4
20260509110522 11 360 0.0 0.0 0.00 0.00 0.00 87 1020.5
20260509105521 11 360 0.0 0.0 0.00 0.00 0.00 86 1020.6
20260509103519 11 360 0.0 0.0 0.00 0.00 0.00 85 1020.5
20260509102519 11 360 0.0 0.0 0.00 0.00 0.00 84 1020.5
20260509101518 11 360 0.0 0.0 0.00 0.00 0.00 84 1020.6
20260509100517 11 360 0.0 0.0 0.00 0.00 0.00 83 1020.6
20260509095515 12 360 0.0 0.0 0.00 0.00 0.00 83 1020.7
20260509094514 12 360 0.0 0.0 0.00 0.00 0.00 83 1020.7
20260509092512 12 360 0.0 0.0 0.00 0.00 0.00 82 1020.8
20260509091512 12 360 0.0 0.0 0.00 0.00 0.00 82 1020.7
20260509085509 12 316 0.0 0.0 0.00 0.00 0.00 80 1020.9
20260509084508 12 316 0.0 0.0 0.00 0.00 0.00 80 1020.9
20260509083507 12 316 0.0 0.0 0.00 0.00 0.00 79 1021.0
20260509082506 13 316 0.0 0.0 0.00 0.00 0.00 79 1021.1
20260509081505 13 316 0.0 0.0 0.00 0.00 0.00 79 1021.3
20260509080504 13 316 0.0 0.0 0.00 0.00 0.00 78 1021.3
20260509075503 13 316 0.0 0.0 0.00 0.00 0.00 78 1021.4
20260509074502 13 316 0.0 0.0 0.00 0.00 0.00 77 1021.4
20260509073501 13 316 0.0 0.0 0.00 0.00 0.00 76 1021.4
20260509071459 14 316 0.0 0.0 0.00 0.00 0.00 75 1021.4
20260509070458 14 316 0.0 0.0 0.00 0.00 0.00 74 1021.4
20260509065457 14 316 0.0 0.0 0.00 0.00 0.00 74 1021.4
20260509064456 14 323 0.0 0.0 0.00 0.00 0.00 73 1021.5
20260509063455 15 324 0.0 0.0 0.00 0.00 0.00 72 1021.5
20260509062454 15 324 0.0 0.0 0.00 0.00 0.00 71 1021.3
20260509061453 15 325 0.0 0.0 0.00 0.00 0.00 70 1021.3
20260509055451 15 313 1.6 0.0 0.00 0.00 0.00 69 1021.3
20260509054450 16 313 0.0 0.0 0.00 0.00 0.00 68 1021.3
20260509053449 16 306 0.0 0.0 0.00 0.00 0.00 68 1021.2
20260509051447 16 313 0.0 0.0 0.00 0.00 0.00 67 1021.1
20260509050446 16 307 0.0 0.0 0.00 0.00 0.00 66 1021.0
20260509045445 16 296 0.0 0.0 0.00 0.00 0.00 65 1021.0
20260509044444 16 309 0.0 0.0 0.00 0.00 0.00 64 1020.9
20260509042442 17 326 0.0 0.0 0.00 0.00 0.00 63 1020.6
20260509040440 17 346 0.0 0.0 0.00 0.00 0.00 62 1020.4
20260509035439 17 317 4.8 0.0 0.00 0.00 0.00 61 1020.3
20260509034438 18 320 0.0 0.0 0.00 0.00 0.00 60 1020.1
20260509033437 18 320 0.0 0.0 0.00 0.00 0.00 59 1020.0
20260509032436 18 343 0.0 0.0 0.00 0.00 0.00 58 1019.9
20260509031435 18 322 8.0 0.0 0.00 0.00 0.00 56 1019.8
20260509030434 18 325 0.0 0.0 0.00 0.00 0.00 55 1019.8
20260509025433 19 329 4.8 0.0 0.00 0.00 0.00 54 1019.8
20260509024432 19 322 0.0 0.0 0.00 0.00 0.00 54 1019.8
20260509023431 19 329 0.0 0.0 0.00 0.00 0.00 53 1019.6
20260509022430 20 341 0.0 0.0 0.00 0.00 0.00 53 1019.6
20260509021429 20 338 0.0 0.0 0.00 0.00 0.00 52 1019.6
20260509015427 20 329 0.0 0.0 0.00 0.00 0.00 51 1019.6
20260509014426 20 321 0.0 0.0 0.00 0.00 0.00 52 1019.6
20260509013425 20 322 0.0 0.0 0.00 0.00 0.00 51 1019.7
20260509012424 20 322 0.0 0.0 0.00 0.00 0.00 50 1019.7
20260509011423 20 320 0.0 0.0 0.00 0.00 0.00 51 1019.7
20260509010421 20 320 0.0 0.0 0.00 0.00 0.00 50 1019.7
20260509005421 20 321 0.0 0.0 0.00 0.00 0.00 50 1019.8
20260509004420 20 323 0.0 0.0 0.00 0.00 0.00 48 1019.8
20260509003419 21 317 3.2 0.0 0.00 0.00 0.00 48 1019.8
20260509002418 21 342 0.0 0.0 0.00 0.00 0.00 48 1019.9
20260509000417 22 342 0.0 0.0 0.00 0.00 0.00 45 1020.0
20260508235415 22 302 0.0 0.0 0.00 0.00 0.00 43 1020.1
20260508234414 22 300 0.0 0.0 0.00 0.00 0.00 43 1020.0
20260508233412 22 219 0.0 0.0 0.00 0.00 0.00 44 1020.1
20260508232412 23 223 0.0 0.0 0.00 0.00 0.00 44 1020.1
20260508231410 23 257 0.0 0.0 0.00 0.00 0.00 44 1020.1
20260508230409 22 222 0.0 0.0 0.00 0.00 0.00 44 1020.1
20260508225409 22 228 0.0 0.0 0.00 0.00 0.00 44 1020.1
20260508223406 22 213 0.0 0.0 0.00 0.00 0.00 44 1020.2
20260508222405 22 240 0.0 0.0 0.00 0.00 0.00 44 1020.3
20260508221404 22 304 0.0 0.0 0.00 0.00 0.00 45 1020.4
20260508220404 22 209 0.0 0.0 0.00 0.00 0.00 45 1020.3
20260508214402 21 328 4.8 0.0 0.00 0.00 0.00 46 1020.5
20260508212359 21 213 4.8 0.0 0.00 0.00 0.00 46 1020.6
20260508211358 21 251 1.6 0.0 0.00 0.00 0.00 48 1020.6
20260508210357 21 166 0.0 0.0 0.00 0.00 0.00 48 1020.5
20260508205356 20 146 8.0 0.0 0.00 0.00 0.00 49 1020.6
20260508204355 20 201 0.0 0.0 0.00 0.00 0.00 47 1020.6
20260508203354 20 216 0.0 0.0 0.00 0.00 0.00 51 1020.7
20260508202353 20 233 0.0 0.0 0.00 0.00 0.00 50 1020.6
20260508201352 19 260 1.6 0.0 0.00 0.00 0.00 52 1020.7
20260508200351 19 271 0.0 0.0 0.00 0.00 0.00 51 1020.8
20260508195350 18 221 0.0 0.0 0.00 0.00 0.00 52 1020.9
20260508194349 18 185 0.0 0.0 0.00 0.00 0.00 52 1021.0
20260508193348 17 161 0.0 0.0 0.00 0.00 0.00 56 1020.9
20260508192347 17 220 6.4 0.0 0.00 0.00 0.00 57 1020.8
20260508191346 16 274 0.0 0.0 0.00 0.00 0.00 57 1021.0
20260508190345 16 250 4.8 0.0 0.00 0.00 0.00 58 1021.1
20260508185344 16 244 0.0 0.0 0.00 0.00 0.00 59 1021.1
20260508184343 16 246 1.6 0.0 0.00 0.00 0.00 61 1021.1
20260508183342 16 207 0.0 0.0 0.00 0.00 0.00 57 1021.0
20260508182341 16 228 9.7 0.0 0.00 0.00 0.00 62 1021.1